This demonstration page uses our WeatherBlox Daily Observations layout. Learn more.

Left ArrowRight Arrow

Hourly Observations for July 30, 2017

Temp ( °F °C ) Dew Point ( °F °C ) Humidity (%) Winds ( mph kmh ) Pressure ( in mb ) Visibility ( mi km ) Precip ( " mm )
12:53 am 00:53 Clear 80 26.7 57 13.9 45 45 SSE 7 11 29.86 1011 10 16 0.00 0.00
1:53 am 01:53 Clear 77 25 58 14.4 52 52 Calm 29.87 1012 10 16 0.00 0.00
2:53 am 02:53 Clear 75 23.9 59 15 58 58 NNE 3 6 29.87 1012 10 16 0.00 0.00
3:53 am 03:53 Clear 74 23.3 58 14.4 57 57 NNE 5 7 29.88 1012 10 16 0.00 0.00
4:53 am 04:53 Clear 74 23.3 57 13.9 56 56 ENE 6 9 29.87 1011 10 16 0.00 0.00
5:53 am 05:53 Clear 73 22.8 57 13.9 57 57 N 3 6 29.88 1012 10 16 0.00 0.00
6:53 am 06:53 Clear 72 22.2 58 14.4 61 61 E 3 6 29.89 1012 10 16 0.00 0.00
7:53 am 07:53 Sunny 77 25 57 13.9 50 50 E 6 9 29.90 1012 10 16 0.00 0.00
8:53 am 08:53 Sunny 81 27.2 58 14.4 45 45 ESE 9 15 29.93 1014 10 16 0.00 0.00
9:53 am 09:53 Sunny 87 30.6 57 13.9 36 36 SE 7 11 29.93 1013 10 16 0.00 0.00
10:53 am 10:53 Sunny 91 32.8 57 13.9 32 32 S 8 13 29.93 1014 10 16 0.00 0.00
11:53 am 11:53 Sunny 95 35 57 13.9 28 28 SSW 8 13 29.93 1013 10 16 0.00 0.00
12:53 pm 12:53 Sunny 97 36.1 55 12.8 24 24 SSE 8 13 29.92 1013 10 16 0.00 0.00
1:53 pm 13:53 Mostly Sunny 99 37.2 54 12.2 22 22 S 13 20 29.90 1012 10 16 0.00 0.00
2:53 pm 14:53 Partly Cloudy 101 38.3 52 11.1 19 19 S 10 17 29.87 1012 10 16 0.00 0.00
3:53 pm 15:53 Mostly Cloudy 102 38.9 51 10.6 18 18 SE 8 13 29.84 1011 10 16 0.00 0.00
4:53 pm 16:53 Mostly Sunny 101 38.3 50 10 18 18 SSE 15 24 29.82 1010 10 16 0.00 0.00
5:53 pm 17:53 Sunny 99 37.2 50 10 19 19 S 12 19 29.80 1009 10 16 0.00 0.00
6:53 pm 18:53 Mostly Sunny 100 37.8 49 9.4 18 18 SE 15 24 29.79 1009 10 16 0.00 0.00
7:53 pm 19:53 Partly Cloudy 99 37.2 50 10 19 19 ESE 10 17 29.80 1009 10 16 0.00 0.00
8:53 pm 20:53 Mostly Cloudy 88 31.1 63 17.2 43 43 ENE 17 28 29.85 1011 10 16 0.02 0.51
9:53 pm 21:53 Mostly Cloudy 88 31.1 63 17.2 43 43 ESE 16 26 29.87 1011 10 16 0.00 0.00
10:53 pm 22:53 Mostly Clear 86 30 62 16.7 45 45 ESE 22 35 29.89 1012 10 16 0.00 0.00
11:53 pm 23:53 Clear 81 27.2 64 17.8 57 57 SE 15 24 29.92 1013 10 16 0.00 0.00

Powered by AerisWeather